Tracking 19817 objects as of 18-Aug-2019
HD Live streaming from Space Station
objects crossing your sky now

FENGYUN 1C DEB

Track FENGYUN 1C DEB now!
10-day predictions


NORAD ID: 31266
Int'l Code: 1999-025BMY
Perigee: 737.7 km
Apogee: 935.0 km
Inclination: 99.2 °
Period: 101.5 minutes
Semi major axis: 7207 km
RCS: 0.0121 m2 (small)
Launch date: May 10, 1999
Source: People's Republic of China (PRC)
Launch site: Taiyaun Space Center, China (TSC)

Note: This is SATELLITE DEBRIS
aabbcc
Your satellite tracking list
Your tracking list is empty




NASA's NSSDC Master Catalog

Two Line Element Set (TLE):
1 31266U 99025BMY 19228.83419304 +.00000050 +00000-0 +43043-4 0  9990
2 31266 099.2289 094.6633 0136934 005.9231 053.6696 14.18859011644261
Source of the keplerian elements: AFSPC